Henderson, NV

6:05 AM PST on November 22, 2017 (GMT -0800)
Henderson

Weather History for KHND - September, 2013

Change the Weather History Date:

Thursday, September 19, 2013

  Actual Average (KLAS) Record (KLAS)
Temperature  
Mean Temperature 78 °F -  
Max Temperature 92 °F 90 °F 104 °F (1951)
Min Temperature 64 °F 65 °F 47 °F (1965)
Cooling Degree Days 13    
Growing Degree Days 28 (Base 50)    
Moisture  
Dew Point 32 °F    
Average Humidity 20    
Maximum Humidity 32    
Minimum Humidity 10    
Precipitation  
Precipitation 0.00 in - - ()
Sea Level Pressure  
Sea Level Pressure 29.81 in    
Wind  
Wind Speed 5 mph (NE)    
Max Wind Speed 10 mph    
Max Gust Speed 16 mph    
Visibility 10 miles    
Events      
Averages and records for this station are not official NWS values.
T = Trace of Precipitation, MM = Missing Value Source: NWS Daily Summary

Daily Weather History Graph

Daily Weather History Graph

Search for Another Location

Airport or City:

Trip Planner

Search our weather history database for the weather conditions in past years. The results will help you decide how hot, cold, wet, or windy it might be!

Date:

Astronomy

Sep. 19, 2013 Rise Set
Actual Time 6:26 AM PDT 6:41 PM PDT
Civil Twilight 6:00 AM PDT 7:06 PM PDT
Nautical Twilight 5:30 AM PDT 7:36 PM PDT
Astronomical Twilight 5:00 AM PDT 8:07 PM PDT
Moon 6:44 PM PDT (9/19) 6:38 AM PDT (9/19)
Length of Visible Light 13h 06m
Length of Day
12h 14m
Full, 100% of the Moon is Illuminated
Sep 19
Full
Sep 26
Last Quarter
Oct 4
New
Oct 11
First Quarter
Oct 18
Full

Hourly Weather History & Observations

Time (PDT) Temp. Dew Point Humidity Pressure Visibility Wind Dir Wind Speed Gust Speed Precip Events Conditions
12:56 AM 70.9 °F 32.0 °F 24% 29.76 in 10.0 mi SSE 6.9 mph - N/A   Clear
1:56 AM 70.0 °F 32.0 °F 25% 29.78 in 10.0 mi Calm Calm - N/A   Clear
2:56 AM 66.9 °F 31.1 °F 26% 29.79 in 10.0 mi Calm Calm - N/A   Clear
3:56 AM 70.9 °F 29.1 °F 21% 29.78 in 10.0 mi Calm Calm - N/A   Clear
4:56 AM 68.0 °F 31.1 °F 25% 29.80 in 10.0 mi Calm Calm - N/A   Clear
5:56 AM 64.9 °F 32.0 °F 29% 29.82 in 10.0 mi Calm Calm - N/A   Clear
6:56 AM 64.9 °F 34.0 °F 32% 29.85 in 10.0 mi Calm Calm - N/A   Clear
7:56 AM 73.9 °F 30.0 °F 20% 29.86 in 10.0 mi North 6.9 mph - N/A   Clear
8:56 AM 79.0 °F 32.0 °F 18% 29.87 in 10.0 mi NE 9.2 mph - N/A   Clear
9:56 AM 81.9 °F 32.9 °F 17% 29.88 in 10.0 mi North 9.2 mph - N/A   Clear
10:56 AM 82.9 °F 36.0 °F 19% 29.88 in 10.0 mi North 9.2 mph - N/A   Clear
11:56 AM 86.0 °F 34.9 °F 16% 29.86 in 10.0 mi NNE 9.2 mph - N/A   Clear
12:56 PM 88.9 °F 34.9 °F 15% 29.85 in 10.0 mi NE 10.4 mph - N/A   Clear
1:56 PM 90.0 °F 34.0 °F 14% 29.82 in 10.0 mi NNE 10.4 mph 16.1 mph N/A   Clear
2:56 PM 91.9 °F 30.0 °F 11% 29.80 in 10.0 mi Variable 6.9 mph - N/A   Clear
3:56 PM 92.8 °F 28.0 °F 10% 29.77 in 10.0 mi NNW 8.1 mph - N/A   Clear
4:56 PM 91.9 °F 28.0 °F 10% 29.77 in 10.0 mi NNE 5.8 mph - N/A   Clear
5:56 PM 90.9 °F 27.1 °F 10% 29.77 in 10.0 mi NE 8.1 mph - N/A   Clear
6:56 PM 86.0 °F 29.1 °F 13% 29.77 in 10.0 mi Calm Calm - N/A   Clear
7:56 PM 79.9 °F 34.9 °F 20% 29.78 in 10.0 mi Calm Calm - N/A   Clear
8:56 PM 75.9 °F 32.9 °F 21% 29.80 in 10.0 mi SW 5.8 mph - N/A   Clear
9:56 PM 72.9 °F 32.9 °F 23% 29.81 in 10.0 mi SSE 8.1 mph - N/A   Clear
10:56 PM 72.9 °F 34.9 °F 25% 29.81 in 10.0 mi SSE 8.1 mph - N/A   Clear
11:56 PM 70.9 °F 34.9 °F 27% 29.81 in 10.0 mi SSE 8.1 mph - N/A   Clear